Torna al catalogo

STARLINK-11292

AttivoComunicazioniVLEO
NORAD 61203·PAYLOAD·🇺🇸 United States

Lanciato Sep 20, 2024 da Vandenberg Space Force Base

Loading…

Prossimi Passaggi (prossime 24 ore)

TLE

AggiornatoSource: CelesTrak SupGP

Epoca: Sep 14, 2026, 22:49 UTC

1 61203C 24171D   26257.95118056 -.00064685  00000+0 -53274-3 0  2575
2 61203  53.1562 323.2903 0001210  72.3629 305.9931 15.69745537    14

Traccia STARLINK-11292 in tempo reale con AllMySat

Download on the App Store